Location: Munkebjergskolens Observatorium
(55.3864°N, 10.3987°E)
Time: 11:29:04
(UTC+01:00)

COSMOS 2251 DEB - Pass Details

Date: 16 December 2023
Orbit: 609 x 851 km, 74.0° (Epoch: 02 March)

Event Time Altitude Azimuth Distance (km) Brightness Sun altitude
Exits shadow 05:59:37 14° 344° (NNW) 2,206 ? -21.0°
Maximum altitude 06:04:09 39° 49° (NE) 1,262 ? -20.3°
Drops below altitude 10° 06:09:30 10° 118° (ESE) 2,481 ? -19.6°
Sets 06:12:06 0° 125° (SE) 3,399 ? -19.2°
